GENMAT-1

导读

GENMAT-1是美国于2023年11月11日北京时间8点成功发射的人造卫星,目前已在轨运行近两年四个月。作为美国航天发射序列中的最新卫星成员,该卫星承担着对应空间技术验证或特定航天服务任务,进一步巩固美国在卫星发射与空间应用领域的技术优势,支撑美国全球空间感知与服务能力的发展。

基本信息
目录编号:
58276
目录名称:
GENMAT-1
国际标识:
2023-174W
轨道中心:
EARTH
卫星名称:
GENMAT-1
卫星全名:
--
卫星状态:
在轨 (已飞行1028 天)
发射日期:
2023-11-11 UTC
国别 :
美国 (US)
星等 :
--
轨道信息
数据来源 国际轨道数据
星历时间: 2026-09-03T12:50:39+0800
23小时前
查看轨道信息
半长轴: 6836.442km
偏心率: 0.0004692
轨道倾角: 97.362°
近地点辐角 262.501°
升交点赤经 323.983°
平近点角 97.570°
近地点: 455.097km
远地点: 461.513km
周期: 93.757分钟
每日圈数: 15.35881
详细信息
使用方式:
暂无
2D轨道图
3D轨道图
轨道高度分析图
轨道倾角分析图
轨道综合分析图
查看轨道综合分析图